Regional Weather Roundup
Issued by NWS

Home | Current Version | Previous Version | Graphics & Text | Print | Product List | Glossary On
Versions: 1 2 3 4 5 6 7 8 9 10 11 12 13 14 15 16 17 18 19 20 21 22 23 24 25 26 27 28 29 30 31 32 33 34 35 36 37 38 39 40 41 42 43 44 45 46 47 48 49 50
000
ASUS43 KTOP 040659
RWRKS

WEATHER ROUNDUP FOR KANSAS
NATIONAL WEATHER SERVICE GOODLAND KS
100 AM CST SUN DEC 04 2016

NOTE:  "FAIR" INDICATES FEW OR NO CLOUDS BELOW 12,000 FEET WITH NO
SIGNIFICANT WEATHER AND/OR OBSTRUCTIONS TO VISIBILITY.

KSZ001>006-013>018-027>032-041>047-040800-
NORTHWEST KANSAS

CITY           SKY/WX    TMP DP  RH WIND       PRES   REMARKS
GOODLAND       CLEAR     23  14  68 W14       30.03F WCI  11
HAYS           PTCLDY    31  30  96 W5        30.04F FOG
HILL CITY      CLOUDY    34  33  96 W9        30.03F FOG
RUSSELL        MOCLDY    34  33  96 W3        30.03S
$$

KSZ061>065-074>080-084>089-040800-
SOUTHWEST KANSAS

CITY           SKY/WX    TMP DP  RH WIND       PRES   REMARKS
DODGE CITY     MOCLDY    35  34  96 NW5       30.03F
ELKHART          N/A     33  27  79 NW8         N/A
GARDEN CITY    FOG       32  32 100 W8        30.04R VSB 1/4
GREAT BEND     LGT RAIN  38  37  97 W5        30.04F
LIBERAL        CLOUDY    37  34  87 NW8       30.05R
$$

KSZ066>073-081>083-090>101-040800-
SOUTHEAST KANSAS

CITY           SKY/WX    TMP DP  RH WIND       PRES   REMARKS
CHANUTE        LGT RAIN  41  39  93 E8        30.05F FOG
COFFEYVILLE    LGT RAIN  42  41  96 E5        30.05F FOG
HUTCHINSON     RAIN      40  40 100 CALM      30.04F FOG
MEDICINE LODGE   N/A     40  39  97 CALM      30.04F
NEWTON         LGT RAIN  39  38  96 NE5       30.04F
PARSONS        CLOUDY    41  40  96 CALM      30.06F FOG
WICHITA INTL   LGT RAIN  41  41 100 NE5       30.04F FOG
WICHITA JABRA  LGT RAIN  40  40 100 NE7       30.03F FOG
WICHITA MCCONL LGT RAIN  41  39  93 NE6       30.03F
WINFIELD       LGT RAIN  43  43 100 CALM      30.04F FOG
$$

KSZ007>012-019>026-033>040-048>060-102>105-040800-
NORTHEAST KANSAS

CITY           SKY/WX    TMP DP  RH WIND       PRES   REMARKS
CONCORDIA      CLOUDY    35  35 100 W6        30.04F
EMPORIA        LGT RAIN  40  40 100 N3        30.04F FOG
LAWRENCE       LGT RAIN  41  41 100 SE6       30.08F FOG
MANHATTAN      LGT RAIN  40  39  97 SW6       30.06F
OLATHE IND     LGT RAIN  40  39  97 SE6       30.08F FOG
OLATHE EXE     LGT RAIN  39  38  96 SE3       30.08F FOG
SALINA         LGT RAIN  41  40  96 S5        30.05F
TOPEKA BILLARD LGT RAIN  40  38  93 CALM      30.07F FOG
TOPEKA FORBES  LGT RAIN  42  40  92 CALM      30.06F FOG
$$




USA.gov is the U.S. government's official web portal to all federal, state and local government web resources and services.